Change the Weather History Date:

Thursday, January 3, 2013

  Actual Average (PASK) Record (PASK)
Temperature  
Mean Temperature 20 °F -  
Max Temperature 26 °F 0 °F 33 °F (2005)
Min Temperature 14 °F -12 °F -47 °F (2009)
Degree Days  
Heating Degree Days 45    
Moisture  
Dew Point 16 °F    
Average Humidity 87    
Maximum Humidity 100    
Minimum Humidity 69    
Precipitation  
Precipitation 0.00 in - - ()
Sea Level Pressure  
Sea Level Pressure 29.49 in    
Wind  
Wind Speed 5 mph (SSE)    
Max Wind Speed 10 mph    
Max Gust Speed -    
Visibility 10 miles    
Events      
Averages and records for this station are not official NWS values.
T = Trace of Precipitation, MM = Missing Value Source: NWS Daily Summary

Daily Weather History Graph

Daily Weather History Graph

Search for Another Location

Airport or City:

Trip Planner

Search our weather history database for the weather conditions in past years. The results will help you decide how hot, cold, wet, or windy it might be!

Date:

Astronomy

Jan. 03, 2013 Rise Set
Actual Time 12:06 PM AKST 3:32 PM AKST
Civil Twilight 10:35 AM AKST 5:03 PM AKST
Nautical Twilight 9:20 AM AKST 6:18 PM AKST
Astronomical Twilight 8:16 AM AKST 7:22 PM AKST
Moon 12:21 AM AKST (1/3) 12:05 PM AKST (1/3)
Length of Visible Light 6h 28m
Length of Day
3h 25m
Waning Gibbous, 64% of the Moon is Illuminated
Jan 3
Waning Gibbous
Jan 4
Last Quarter
Jan 11
New
Jan 18
First Quarter
Jan 26
Full

Hourly Weather History & Observations

Time (AKST) Temp. Windchill Dew Point Humidity Pressure Visibility Wind Dir Wind Speed Gust Speed Precip Events Conditions
12:16 AM 21.2 °F 10.9 °F 17.6 °F 86% 29.42 in 10.0 mi SE 9.2 mph - N/A   Overcast
12:36 AM 23.0 °F 13.9 °F 19.4 °F 86% 29.42 in 10.0 mi SE 8.1 mph - N/A   Overcast
12:56 AM 21.2 °F 12.6 °F 19.4 °F 93% 29.42 in 10.0 mi SE 6.9 mph - N/A   Overcast
1:16 AM 23.0 °F 18.4 °F 19.4 °F 86% 29.43 in 10.0 mi South 3.5 mph - N/A   Overcast
1:36 AM 21.2 °F 16.4 °F 17.6 °F 86% 29.43 in 10.0 mi South 3.5 mph - N/A   Overcast
1:56 AM 21.2 °F 14.9 °F 17.6 °F 86% 29.44 in 10.0 mi South 4.6 mph - N/A   Overcast
2:16 AM 21.2 °F 11.7 °F 17.6 °F 86% 29.44 in 10.0 mi SSE 8.1 mph - N/A   Overcast
2:36 AM 21.2 °F 14.9 °F 17.6 °F 86% 29.44 in 10.0 mi South 4.6 mph - N/A   Overcast
2:56 AM 21.2 °F 13.6 °F 17.6 °F 86% 29.44 in 10.0 mi South 5.8 mph - N/A   Overcast
3:16 AM 19.4 °F 11.5 °F 15.8 °F 86% 29.44 in 10.0 mi SSE 5.8 mph - N/A   Partly Cloudy
3:36 AM 19.4 °F 12.8 °F 15.8 °F 86% 29.45 in 10.0 mi SSE 4.6 mph - N/A   Partly Cloudy
3:56 AM 17.6 °F 8.2 °F 15.8 °F 93% 29.45 in 10.0 mi SSE 6.9 mph - N/A   Partly Cloudy
4:16 AM 15.8 °F 7.2 °F 15.8 °F 100% 29.45 in 10.0 mi South 5.8 mph - N/A   Partly Cloudy
4:36 AM 15.8 °F 5.1 °F 15.8 °F 100% 29.45 in 10.0 mi South 8.1 mph - N/A   Mostly Cloudy
4:56 AM 15.8 °F 7.2 °F 12.2 °F 86% 29.45 in 10.0 mi South 5.8 mph - N/A   Overcast
5:16 AM 17.6 °F 12.3 °F 15.8 °F 93% 29.45 in 9.0 mi South 3.5 mph - N/A   Overcast
5:36 AM 17.6 °F 12.3 °F 15.8 °F 93% 29.45 in 10.0 mi South 3.5 mph - N/A   Overcast
5:56 AM 17.6 °F - 15.8 °F 93% 29.45 in 10.0 mi Calm Calm - N/A   Overcast
6:16 AM 17.6 °F - 15.8 °F 93% 29.46 in 10.0 mi Calm Calm - N/A   Overcast
6:36 AM 17.6 °F - 15.8 °F 93% 29.46 in 10.0 mi Calm Calm - N/A   Overcast
6:56 AM 17.6 °F - 15.8 °F 93% 29.46 in 10.0 mi Calm Calm - N/A   Overcast
7:16 AM 19.4 °F 14.3 °F 15.8 °F 86% 29.46 in 10.0 mi SE 3.5 mph - N/A   Overcast
7:36 AM 19.4 °F 12.8 °F 17.6 °F 93% 29.46 in 10.0 mi SE 4.6 mph - N/A   Overcast
7:56 AM 19.4 °F 12.8 °F 17.6 °F 93% 29.47 in 10.0 mi ESE 4.6 mph - N/A   Overcast
8:16 AM 19.4 °F - 17.6 °F 93% 29.47 in 10.0 mi Calm Calm - N/A   Overcast
8:36 AM 19.4 °F 12.8 °F 15.8 °F 86% 29.47 in 10.0 mi ENE 4.6 mph - N/A   Overcast
8:56 AM 19.4 °F 14.3 °F 17.6 °F 93% 29.48 in 10.0 mi East 3.5 mph - N/A   Overcast
9:16 AM 21.2 °F - 17.6 °F 86% 29.48 in 10.0 mi Calm Calm - N/A   Overcast
9:36 AM 21.2 °F 16.4 °F 19.4 °F 93% 29.48 in 10.0 mi ENE 3.5 mph - N/A   Mostly Cloudy
9:56 AM 19.4 °F 14.3 °F 15.8 °F 86% 29.48 in 10.0 mi NW 3.5 mph - N/A   Overcast
10:16 AM 19.4 °F - 17.6 °F 93% 29.49 in 10.0 mi Calm Calm - N/A   Overcast
10:36 AM 19.4 °F - 17.6 °F 93% 29.50 in 10.0 mi Calm Calm - N/A   Overcast
10:56 AM 19.4 °F 14.3 °F 15.8 °F 86% 29.50 in 10.0 mi West 3.5 mph - N/A   Overcast
11:16 AM 19.4 °F - 15.8 °F 86% 29.50 in 10.0 mi Calm Calm - N/A   Overcast
11:36 AM 19.4 °F - 15.8 °F 86% 29.51 in 10.0 mi Calm Calm - N/A   Overcast
11:56 AM 19.4 °F - 17.6 °F 93% 29.51 in 10.0 mi Calm Calm - N/A   Overcast
12:16 PM 19.4 °F - 17.6 °F 93% 29.51 in 10.0 mi Calm Calm - N/A   Overcast
12:36 PM 17.6 °F - 15.8 °F 93% 29.51 in 10.0 mi Calm Calm - N/A   Mostly Cloudy
12:56 PM 17.6 °F - 15.8 °F 93% 29.51 in 10.0 mi Calm Calm - N/A   Clear
1:16 PM 17.6 °F - 15.8 °F 93% 29.51 in 10.0 mi Calm Calm - N/A   Scattered Clouds
1:36 PM 15.8 °F 10.2 °F 15.8 °F 100% 29.51 in 10.0 mi East 3.5 mph - N/A   Partly Cloudy
1:56 PM 15.8 °F 7.2 °F 14.0 °F 93% 29.51 in 4.0 mi SSW 5.8 mph - N/A   Mostly Cloudy
2:16 PM 15.8 °F 8.6 °F 14.0 °F 93% 29.51 in 10.0 mi South 4.6 mph - N/A   Overcast
2:36 PM 17.6 °F - 15.8 °F 93% 29.51 in 10.0 mi Calm Calm - N/A   Overcast
3:16 PM 17.6 °F 10.7 °F 15.8 °F 93% 29.52 in 8.0 mi SW 4.6 mph - N/A   Overcast
3:36 PM 21.2 °F 16.4 °F 19.4 °F 93% 29.51 in 10.0 mi South 3.5 mph - N/A   Overcast
3:56 PM 23.0 °F 14.7 °F 17.6 °F 80% 29.51 in 10.0 mi SSE 6.9 mph - N/A   Overcast
4:16 PM 24.8 °F 16.9 °F 17.6 °F 74% 29.51 in 10.0 mi South 6.9 mph - N/A   Overcast
4:36 PM 24.8 °F 15.3 °F 17.6 °F 74% 29.51 in 10.0 mi SSE 9.2 mph - N/A   Overcast
4:56 PM 24.8 °F 15.3 °F 19.4 °F 80% 29.52 in 10.0 mi South 9.2 mph - N/A   Overcast
5:16 PM 24.8 °F 19.1 °F 17.6 °F 74% 29.52 in 10.0 mi South 4.6 mph - N/A   Overcast
5:36 PM 21.2 °F 12.6 °F 15.8 °F 80% 29.52 in 10.0 mi South 6.9 mph - N/A   Scattered Clouds
5:56 PM 19.4 °F 9.5 °F 15.8 °F 86% 29.53 in 10.0 mi South 8.1 mph - N/A   Clear
6:16 PM 19.4 °F 11.5 °F 15.8 °F 86% 29.53 in 10.0 mi South 5.8 mph - N/A   Clear
6:36 PM 17.6 °F 10.7 °F 12.2 °F 79% 29.54 in 10.0 mi South 4.6 mph - N/A   Mostly Cloudy
6:56 PM 17.6 °F - 14.0 °F 86% 29.54 in 10.0 mi Calm Calm - N/A   Overcast
7:16 PM 15.8 °F 6.1 °F 12.2 °F 86% 29.54 in 10.0 mi South 6.9 mph - N/A   Scattered Clouds
7:36 PM 15.8 °F 6.1 °F 10.4 °F 79% 29.54 in 10.0 mi South 6.9 mph - N/A   Scattered Clouds
7:56 PM 14.0 °F 2.9 °F 10.4 °F 86% 29.54 in 10.0 mi South 8.1 mph - N/A   Overcast
8:16 PM 15.8 °F 7.2 °F 10.4 °F 79% 29.54 in 10.0 mi SSE 5.8 mph - N/A   Overcast
8:36 PM 15.8 °F 7.2 °F 12.2 °F 86% 29.54 in 10.0 mi SSE 5.8 mph - N/A   Mostly Cloudy
8:56 PM 15.8 °F 8.6 °F 12.2 °F 86% 29.54 in 10.0 mi South 4.6 mph - N/A   Partly Cloudy
9:16 PM 15.8 °F 6.1 °F 12.2 °F 86% 29.54 in 10.0 mi South 6.9 mph - N/A   Mostly Cloudy
9:36 PM 15.8 °F 5.1 °F 12.2 °F 86% 29.54 in 10.0 mi South 8.1 mph - N/A   Overcast
9:56 PM 17.6 °F 8.2 °F 12.2 °F 79% 29.55 in 10.0 mi South 6.9 mph - N/A   Overcast
10:16 PM 19.4 °F 12.8 °F 15.8 °F 86% 29.55 in 10.0 mi SSW 4.6 mph - N/A   Overcast
10:36 PM 21.2 °F 12.6 °F 17.6 °F 86% 29.56 in 10.0 mi SSW 6.9 mph - N/A   Overcast
10:56 PM 24.8 °F 19.1 °F 17.6 °F 74% 29.56 in 10.0 mi SSW 4.6 mph - N/A   Overcast
11:16 PM 26.6 °F 20.0 °F 17.6 °F 69% 29.56 in 10.0 mi South 5.8 mph - N/A   Overcast
11:36 PM 26.6 °F 18.2 °F 17.6 °F 69% 29.56 in 10.0 mi SSE 8.1 mph - N/A   Overcast
11:56 PM 26.6 °F 16.8 °F 17.6 °F 69% 29.57 in 10.0 mi SSE 10.4 mph - N/A   Mostly Cloudy